#timestamp,LO_Frequency,Hit,Temp,Hum 
1478170815.6,286046985.9,N,0.0,0.0
1478170835.4,286046986.8,N,0.0,0.0
1478170855.2,286046983.7,N,0.0,0.0
1478170875.1,286046984.3,N,0.0,0.0
1478170876.0,286046984.3,N,0.0,0.0
1478170895.8,286046986.3,N,0.0,0.0
1478170915.6,286046986.8,N,0.0,0.0
1478170935.5,286046985.8,N,0.0,0.0
1478170955.3,286046988.3,N,0.0,0.0
1478170975.1,286046988.2,N,0.0,0.0
1478170995.9,286046991.4,N,0.0,0.0
1478171015.7,286046991.8,N,0.0,0.0
1478171035.5,286046989.0,N,0.0,0.0
1478171055.4,286046990.5,N,0.0,0.0
1478171075.2,286046990.6,N,0.0,0.0
1478171095.0,286046990.8,N,0.0,0.0
1478171096.0,286046990.8,N,0.0,0.0
1478171115.8,286046991.8,N,0.0,0.0
1478171135.6,286046993.8,N,0.0,0.0
1478171155.5,286046993.6,N,0.0,0.0
1478171175.3,286046992.2,N,0.0,0.0
1478171195.1,286046990.1,N,0.0,0.0
1478171215.9,286046992.9,N,0.0,0.0
1478171235.7,286046993.9,N,0.0,0.0
1478171255.5,286046995.0,N,0.0,0.0
1478171275.4,286046997.5,N,0.0,0.0
1478171295.2,286046995.0,N,0.0,0.0
1478171315.0,286046992.0,N,0.0,0.0
1478171315.9,286046992.0,N,0.0,0.0
1478171335.8,286046990.1,N,0.0,0.0
1478171355.6,286046991.8,N,0.0,0.0
1478171375.4,286046994.6,N,0.0,0.0
1478171395.3,286046994.2,N,0.0,0.0
1478171415.1,286046992.9,N,0.0,0.0
1478171435.9,286046993.3,N,0.0,0.0
1478171455.7,286046993.1,N,0.0,0.0
1478171475.5,286046992.9,N,0.0,0.0
1478171495.4,286046992.2,N,0.0,0.0
1478171515.2,286046987.0,N,0.0,0.0
1478171535.0,286046989.1,N,0.0,0.0
1478171535.9,286046989.1,N,0.0,0.0
1478171555.8,286046985.3,N,0.0,0.0
1478171575.6,286046986.3,N,0.0,0.0
1478171595.4,286046987.2,N,0.0,0.0
1478171615.3,286046987.2,N,0.0,0.0
1478171635.1,286046989.8,N,0.0,0.0
1478171655.8,286046990.3,N,0.0,0.0
1478171675.7,286046993.7,N,0.0,0.0
1478171695.5,286046993.5,N,0.0,0.0
1478171715.4,286046992.3,N,0.0,0.0
1478171735.2,286046992.7,N,0.0,0.0
1478171755.0,286046991.7,N,0.0,0.0
1478171755.9,286046991.7,N,0.0,0.0
1478171775.8,286046995.1,N,0.0,0.0
1478171795.6,286046994.1,N,0.0,0.0
1478171815.4,286046995.5,N,0.0,0.0
1478171835.3,286046990.4,N,0.0,0.0
1478171855.1,286046989.6,N,0.0,0.0
1478171875.8,286046991.2,N,0.0,0.0
1478171895.7,286046990.3,N,0.0,0.0
1478171915.5,286046992.8,N,0.0,0.0
1478171935.3,286046990.5,N,0.0,0.0
1478171955.2,286046990.9,N,0.0,0.0
1478171975.0,286046990.2,N,0.0,0.0
1478171975.9,286046990.2,N,0.0,0.0
1478171995.8,286046992.5,N,0.0,0.0
1478172015.6,286046993.0,N,0.0,0.0
1478172035.4,286046993.3,N,0.0,0.0
1478172055.3,286046993.5,N,0.0,0.0
1478172075.1,286046993.9,N,0.0,0.0
1478172076.0,286046993.9,N,0.0,0.0
1478172095.8,286046994.5,N,0.0,0.0
1478172115.7,286046995.1,N,0.0,0.0
1478172135.5,286046999.4,N,0.0,0.0
1478172155.3,286046998.4,N,0.0,0.0
1478172175.2,286047001.1,N,0.0,0.0
1478172195.9,286046998.4,N,0.0,0.0
1478172215.7,286047001.0,N,0.0,0.0
1478172235.6,286046996.8,N,0.0,0.0
1478172255.4,286046999.6,N,0.0,0.0
1478172275.2,286046997.2,N,0.0,0.0
1478172295.1,286046996.1,N,0.0,0.0
1478172296.0,286046996.1,N,0.0,0.0
1478172315.8,286046996.7,N,0.0,0.0
1478172335.7,286046994.9,N,0.0,0.0
1478172355.5,286046997.3,N,0.0,0.0
1478172375.3,286046997.7,N,0.0,0.0
1478172395.2,286046998.4,N,0.0,0.0
1478172415.9,286046997.7,N,0.0,0.0
1478172435.7,286046997.6,N,0.0,0.0
1478172455.6,286046995.0,N,0.0,0.0
1478172475.4,286046993.6,N,0.0,0.0
1478172495.2,286046990.7,N,0.0,0.0
1478172515.1,286046988.1,N,0.0,0.0
1478172516.0,286046988.1,N,0.0,0.0
1478172535.8,286046987.4,N,0.0,0.0
1478172555.6,286046990.4,N,0.0,0.0
1478172575.5,286047007.5,N,0.0,0.0
1478172595.3,286047001.1,N,0.0,0.0
1478172615.1,286046995.8,N,0.0,0.0
1478172635.9,286046996.3,N,0.0,0.0
1478172655.7,286046997.8,N,0.0,0.0
1478172675.6,286046996.9,N,0.0,0.0
1478172695.4,286046997.9,N,0.0,0.0
1478172715.2,286046995.5,N,0.0,0.0
1478172735.1,286046997.9,N,0.0,0.0
1478172736.0,286046997.9,N,0.0,0.0
1478172755.8,286047000.1,N,0.0,0.0
1478172775.6,286046996.6,N,0.0,0.0
1478172795.5,286046999.2,N,0.0,0.0
1478172815.3,286046995.2,N,0.0,0.0
1478172835.1,286046996.2,N,0.0,0.0
1478172855.9,286046995.2,N,0.0,0.0
1478172875.7,286046999.5,N,0.0,0.0
1478172895.5,286046999.1,N,0.0,0.0
1478172915.4,286046997.0,N,0.0,0.0
1478172935.2,286046998.2,N,0.0,0.0
1478172955.0,286046998.7,N,0.0,0.0
1478172956.0,286046998.7,N,0.0,0.0
1478172975.8,286046996.6,N,0.0,0.0
1478172995.6,286046993.8,N,0.0,0.0
1478173015.5,286046996.2,N,0.0,0.0
1478173035.3,286047006.4,N,0.0,0.0
1478173055.1,286046993.3,N,0.0,0.0
1478173075.9,286046998.9,N,0.0,0.0
1478173095.7,286046991.9,N,0.0,0.0
1478173115.5,286047002.9,N,0.0,0.0
1478173135.4,286046996.6,N,0.0,0.0
1478173155.2,286047000.0,N,0.0,0.0
1478173175.0,286047000.5,N,0.0,0.0
1478173175.9,286047000.5,N,0.0,0.0
1478173195.8,286046999.9,N,0.0,0.0
1478173215.6,286046999.7,N,0.0,0.0
1478173235.4,286046998.9,N,0.0,0.0
1478173255.3,286046996.6,N,0.0,0.0
1478173275.1,286046995.4,N,0.0,0.0
1478173295.9,286046997.8,N,0.0,0.0
1478173315.7,286046998.8,N,0.0,0.0
1478173335.5,286046999.5,N,0.0,0.0
1478173355.4,286046996.1,N,0.0,0.0
1478173375.2,286046993.8,N,0.0,0.0
1478173395.0,286046994.7,N,0.0,0.0
1478173395.9,286046994.7,N,0.0,0.0
1478173415.8,286046991.7,N,0.0,0.0
1478173435.6,286046996.8,N,0.0,0.0
1478173455.4,286046997.3,N,0.0,0.0
1478173475.3,286046992.8,N,0.0,0.0
1478173495.1,286046995.0,N,0.0,0.0
1478173515.8,286046997.4,N,0.0,0.0
1478173535.7,286046998.6,N,0.0,0.0
1478173555.5,286046998.2,N,0.0,0.0
1478173575.4,286046999.0,N,0.0,0.0
1478173595.2,286046999.6,N,0.0,0.0
1478173615.0,286046996.8,N,0.0,0.0
1478173615.9,286046996.8,N,0.0,0.0
1478173635.8,286046994.9,N,0.0,0.0
1478173655.6,286046999.1,N,0.0,0.0
1478173675.4,286046999.4,N,0.0,0.0
1478173695.3,286046997.1,N,0.0,0.0
1478173715.1,286046997.8,N,0.0,0.0
1478173735.8,286046995.0,N,0.0,0.0
1478173755.7,286046996.2,N,0.0,0.0
1478173775.5,286046997.5,N,0.0,0.0
1478173795.3,286046995.3,N,0.0,0.0
1478173815.2,286046997.9,N,0.0,0.0
1478173835.0,286046998.9,N,0.0,0.0
1478173835.9,286046998.9,N,0.0,0.0
1478173855.7,286046996.6,N,0.0,0.0
1478173875.6,286046998.5,N,0.0,0.0
1478173895.4,286046995.2,N,0.0,0.0
1478173915.3,286046990.6,N,0.0,0.0
1478173935.1,286046993.2,N,0.0,0.0
1478173936.0,286046993.2,N,0.0,0.0
1478173955.8,286046996.0,N,0.0,0.0
1478173975.7,286046996.1,N,0.0,0.0
1478173995.5,286046994.4,N,0.0,0.0
1478174015.3,286046999.0,N,0.0,0.0
1478174035.2,286046999.2,N,0.0,0.0
1478174055.0,286047000.9,N,0.0,0.0
1478174055.9,286047000.9,N,0.0,0.0
1478174075.7,286047000.4,N,0.0,0.0
1478174095.6,286046998.5,N,0.0,0.0
1478174115.4,286046998.1,N,0.0,0.0
1478174135.2,286046995.0,N,0.0,0.0
1478174155.1,286046998.0,N,0.0,0.0
1478174156.0,286046998.0,N,0.0,0.0
1478174175.8,286046997.7,N,0.0,0.0
1478174195.7,286046996.8,N,0.0,0.0
1478174215.5,286046996.3,N,0.0,0.0
1478174235.3,286046999.6,N,0.0,0.0
1478174255.2,286046998.4,N,0.0,0.0
1478174275.9,286046996.5,N,0.0,0.0
1478174295.7,286046993.8,N,0.0,0.0
1478174315.6,286046994.6,N,0.0,0.0
1478174335.4,286046992.7,N,0.0,0.0
1478174355.2,286046998.4,N,0.0,0.0
1478174375.1,286046999.2,N,0.0,0.0
1478174376.0,286046999.2,N,0.0,0.0
1478174395.8,286046997.5,N,0.0,0.0
